Weather History for KCDJ - December, 2013

Change the Weather History Date:

Wednesday, December 4, 2013

  Actual Average (KIRK) Record (KIRK)
Temperature  
Mean Temperature 35 °F 32 °F  
Max Temperature 46 °F 41 °F 68 °F (1998)
Min Temperature 24 °F 23 °F 2 °F (1991)
Degree Days  
Heating Degree Days 30 33  
Month to date heating degree days 130  
Since 1 July heating degree days 1351  
Cooling Degree Days 0 0  
Month to date cooling degree days 0  
Year to date cooling degree days 939  
Moisture  
Dew Point 32 °F    
Average Humidity 84    
Maximum Humidity 97    
Minimum Humidity 65    
Precipitation  
Precipitation 0.01 in 0.07 in 1.47 in (1925)
Month to date precipitation 0.27  
Year to date precipitation 37.83  
Sea Level Pressure  
Sea Level Pressure 29.72 in    
Wind  
Wind Speed 5 mph (WNW)    
Max Wind Speed 14 mph    
Max Gust Speed 25 mph    
T = Trace of Precipitation, MM = Missing Value Source: NWS Daily Summary

Daily Weather History Graph

Daily Weather History Graph

Search for Another Location

Airport or City:

Trip Planner

Search our weather history database for the weather conditions in past years. The results will help you decide how hot, cold, wet, or windy it might be!

Date:

Astronomy

Dec. 04, 2013 Rise Set
Actual Time 7:19 AM CST 4:49 PM CST
Civil Twilight 6:49 AM CST 5:19 PM CST
Nautical Twilight 6:15 AM CST 5:53 PM CST
Astronomical Twilight 5:43 AM CST 6:25 PM CST
Moon 8:48 AM CST (12/4) 7:00 PM CST (12/4)
Length of Visible Light 10h 30m
Length of Day
9h 29m
Waxing Crescent, 4% of the Moon is Illuminated
Dec 4
Waxing Crescent
Dec 9
First Quarter
Dec 17
Full
Dec 25
Last Quarter
Jan 1
New

Hourly Weather History & Observations

Time (CST) Temp. Windchill Dew Point Humidity Pressure Visibility Wind Dir Wind Speed Gust Speed Precip Events Conditions
12:52 AM 39.0 °F - 37.0 °F 93% 29.64 in - Calm Calm - N/A   Unknown
1:52 AM 41.0 °F 39.0 °F 39.0 °F 93% 29.62 in - North 3.5 mph - N/A   Unknown
2:52 AM 42.1 °F 40.2 °F 39.0 °F 89% 29.60 in - NE 3.5 mph - N/A   Unknown
3:52 AM 43.0 °F - 39.9 °F 89% 29.59 in - Calm Calm - N/A   Unknown
4:52 AM 43.0 °F - 39.9 °F 89% 29.59 in - Calm Calm - N/A   Unknown
5:52 AM 46.9 °F - 45.0 °F 93% 29.58 in - South 5.8 mph - N/A   Unknown
6:52 AM 46.9 °F - 45.0 °F 93% 29.57 in - SSE 4.6 mph - N/A   Unknown
7:52 AM 46.9 °F - 46.0 °F 97% 29.58 in - Calm Calm - N/A   Unknown
8:52 AM 46.0 °F - 44.1 °F 93% 29.59 in - Calm Calm - N/A   Unknown
9:52 AM 44.1 °F 41.5 °F 42.1 °F 93% 29.61 in - WNW 4.6 mph - N/A   Unknown
10:52 AM 42.1 °F 37.7 °F 39.9 °F 92% 29.61 in - WNW 6.9 mph - 0.01 in   Unknown
11:52 AM 42.1 °F 36.6 °F 39.0 °F 89% 29.60 in - West 9.2 mph - N/A   Unknown
12:52 PM 42.1 °F 37.1 °F 37.9 °F 85% 29.60 in - West 8.1 mph - N/A   Unknown
1:52 PM 35.1 °F 26.9 °F 30.9 °F 85% 29.66 in - WNW 11.5 mph 23.0 mph N/A   Unknown
2:52 PM 33.1 °F 24.4 °F 28.0 °F 82% 29.71 in - WNW 11.5 mph 25.3 mph N/A   Unknown
3:52 PM 30.9 °F 22.2 °F 26.1 °F 82% 29.76 in - WNW 10.4 mph 18.4 mph N/A   Unknown
4:52 PM 30.0 °F 21.1 °F 24.1 °F 79% 29.81 in - WNW 10.4 mph 24.2 mph N/A   Unknown
5:52 PM 28.0 °F 18.6 °F 21.9 °F 78% 29.83 in - West 10.4 mph 18.4 mph N/A   Unknown
6:52 PM 27.0 °F 18.7 °F 19.9 °F 75% 29.88 in - WNW 8.1 mph 21.9 mph N/A   Unknown
7:52 PM 26.1 °F 16.8 °F 19.0 °F 75% 29.92 in - West 9.2 mph 20.7 mph N/A   Unknown
8:52 PM 26.1 °F 16.2 °F 18.0 °F 71% 29.95 in - NW 10.4 mph 18.4 mph N/A   Unknown
9:52 PM 25.0 °F 16.3 °F 16.0 °F 69% 29.98 in - West 8.1 mph - N/A   Unknown
10:52 PM 24.1 °F 13.7 °F 15.1 °F 69% 30.01 in - West 10.4 mph 18.4 mph N/A   Unknown
11:52 PM 24.1 °F 12.0 °F 14.0 °F 65% 30.05 in - NW 13.8 mph 21.9 mph N/A   Unknown